Location: Unspecified
(51.0950°N, 12.9690°E)
Time: 18:50:59
(UTC+00:00)

BUGSAT 1 - Pass Details

Date: 16 May 2025
Orbit: 512 x 554 km, 98.1° (Epoch: 16 June)

Event Time Altitude Azimuth Distance (km) Brightness Sun altitude
Exits shadow 20:10:07 12° 161° (SSE) 1,635 ? -9.9°
Maximum altitude 20:13:37 83° 75° (ENE) 530 ? -10.3°
Drops below altitude 10° 20:17:24 10° 347° (NNW) 1,754 ? -10.6°
Sets 20:19:29 0° 347° (NNW) 2,644 ? -10.9°
